Wind_Speed
23 26 27 25 24 23 24 23 23 25 26 26 27 28 28 30 32 30 28 29 28 30 34 34 35 38 40 38 34 35 37 36 33 30 25 22 23 24 25 27 28 29 30 32 34 34 34 35 36 37 38 39 41 42 42 42 41 42 42 43 44 43 43 43 43 43 44 44 45 45 46 46 46 47 47 47 49 52 54 56 57 54 49 47 46 47
23 27 25 23 24 26 25 24 26 27 27 27 28 28 30 32 34 31 28 30 29 32 35 35 38 43 43 40 37 35 33 28 24 23 21 21 23 24 24 23 25 27 29 32 34 35 35 36 37 38 39 40 41 42 42 42 42 42 43 43 44 44 44 45 45 45 45 46 47 48 48 48 48 48 49 50 51 53 55 58 58 54 50 48 47 47
24 26 23 22 26 26 26 27 28 28 27 27 28 29 32 33 34 32 28 29 30 32 37 38 42 48 44 43 39 29 23 23 22 20 18 21 24 23 22 20 22 25 28 32 34 35 35 36 37 38 38 40 41 42 41 41 42 42 42 43 44 45 46 46 46 46 47 48 49 49 50 50 50 51 51 52 54 56 58 60 59 54 51 49 49 49
25 24 21 22 25 27 28 29 30 29 27 28 29 31 33 33 32 33 31 30 30 32 38 39 46 53 46 41 32 19 21 28 23 19 18 22 24 22 19 18 22 26 28 31 32 34 35 35 37 37 38 39 40 40 40 40 41 41 42 44 45 46 47 47 47 47 48 49 50 50 51 52 52 53 53 54 56 59 62 63 59 54 52 51 50 50
26 24 25 26 27 29 30 31 31 28 27 29 30 32 34 32 30 32 32 31 32 33 35 36 46 50 33 21 23 25 32 29 18 16 18 20 22 20 19 21 25 28 28 29 31 33 35 35 36 36 37 38 38 38 39 40 41 41 43 44 46 47 48 48 48 48 49 50 50 51 51 52 52 52 53 55 57 60 64 63 57 53 52 52 52 52
26 25 27 29 30 31 31 32 31 28 30 31 31 31 33 31 29 30 30 31 32 29 26 23 26 27 11 9 29 39 33 24 17 15 14 16 18 18 21 25 27 27 27 28 31 32 33 33 34 35 35 36 36 37 39 40 40 42 44 45 46 48 48 48 49 49 50 51 51 51 52 52 53 53 54 56 60 63 66 62 56 53 52 52 52 53
27 26 28 29 31 31 31 34 33 30 31 32 31 31 30 30 30 30 29 31 28 24 24 21 17 22 21 27 43 37 20 21 21 14 12 14 15 19 24 24 24 26 26 27 29 30 31 31 32 33 34 34 35 37 39 39 41 42 44 45 46 48 48 49 50 50 51 52 52 52 53 54 55 56 57 60 63 67 67 61 56 54 52 52 52 52
28 27 27 29 30 31 33 35 34 31 30 31 32 30 30 31 31 32 31 29 31 33 35 32 27 29 33 36 35 21 15 24 19 12 14 14 18 26 25 21 25 28 27 26 27 28 29 30 32 32 32 34 35 37 38 39 41 42 44 45 46 47 48 49 50 51 52 52 53 54 54 55 56 58 59 62 66 69 67 61 58 56 54 53 53 53
31 31 31 30 30 32 35 37 35 32 31 32 32 30 30 31 30 32 31 29 34 34 32 33 25 19 27 33 23 15 18 19 13 14 15 15 26 29 21 24 31 30 27 25 25 26 28 30 31 31 32 33 34 35 37 39 40 41 43 45 46 47 49 50 51 52 52 53 54 55 56 56 57 59 61 65 68 69 65 60 57 56 54 54 53 54
33 35 35 34 35 36 37 38 37 35 33 32 32 30 29 29 30 31 30 31 31 24 27 37 26 14 20 29 19 13 14 15 17 18 15 20 30 25 21 30 32 28 26 24 23 25 27 28 29 30 31 31 32 34 35 38 39 41 43 44 46 48 49 50 51 52 53 54 55 56 56 57 59 60 63 67 69 66 62 59 57 55 55 54 54 55
37 39 39 39 38 38 39 39 39 36 33 33 32 29 28 28 30 29 28 28 21 15 27 35 25 16 12 15 14 13 16 24 24 17 18 27 29 23 27 33 28 25 24 21 23 25 25 26 27 28 29 29 30 32 34 37 39 41 43 44 46 48 49 50 50 52 53 54 55 56 57 58 60 62 65 69 69 64 60 58 57 55 55 54 54 55
40 41 41 40 38 38 39 39 38 35 33 32 30 28 25 20 19 18 17 15 7 9 21 19 13 17 16 17 24 26 30 30 22 18 24 29 25 26 32 31 25 24 21 21 24 25 24 24 26 26 28 28 29 31 33 36 38 40 42 43 45 47 48 49 50 51 53 54 56 57 58 59 61 63 67 70 67 63 61 59 57 56 55 55 55 56
41 42 39 37 37 37 37 37 36 34 33 33 31 26 17 7 7 7 4 4 7 13 20 15 9 16 29 41 43 35 29 23 22 28 27 24 25 31 34 30 26 23 22 25 25 26 26 25 27 27 27 28 29 30 32 35 38 40 41 43 45 47 48 49 50 51 53 55 56 57 59 60 62 65 68 68 64 61 60 59 58 57 56 56 57 57
32 36 36 34 34 34 34 34 33 31 28 27 27 24 14 3 2 4 4 4 9 17 20 15 13 17 30 42 36 21 18 23 31 31 21 23 29 32 34 31 25 23 24 27 27 28 28 28 30 29 28 29 29 30 33 35 37 38 40 42 44 46 47 48 50 51 53 55 56 58 60 61 63 66 68 65 61 60 59 58 57 57 57 58 58 58
23 27 30 29 27 27 27 26 24 24 24 22 20 20 19 14 8 6 5 4 7 16 15 8 8 13 19 25 23 21 29 32 29 23 19 27 30 31 35 29 22 24 26 27 29 29 30 31 33 31 29 29 29 31 33 35 37 37 39 42 43 45 46 48 50 52 54 55 57 59 60 61 64 66 65 61 59 58 57 57 57 57 58 58 59 59
25 30 34 29 25 25 24 23 22 23 24 23 21 22 24 25 22 15 14 17 12 14 14 11 17 29 32 35 37 34 33 27 21 21 23 29 31 34 34 26 24 29 29 29 30 30 31 34 35 33 30 29 30 32 33 35 36 37 39 41 42 44 46 48 50 52 54 56 57 59 59 61 64 65 61 59 57 56 56 56 57 58 58 58 58 59
22 27 29 24 22 23 22 24 25 24 22 22 24 27 27 25 24 20 17 21 12 8 16 17 23 38 37 36 39 27 21 24 23 22 25 30 35 37 34 30 33 36 34 34 34 33 34 36 36 33 30 30 31 32 34 35 36 37 39 41 42 44 46 48 50 52 54 56 57 58 59 62 64 61 58 57 56 55 55 55 57 58 58 58 59 59
28 31 34 30 27 28 28 26 26 28 26 26 25 26 24 19 20 18 8 7 4 3 15 20 25 33 23 22 32 24 19 24 20 19 27 36 40 40 38 40 41 41 40 40 39 38 38 37 36 33 31 31 31 32 34 35 36 39 40 41 43 44 46 48 50 52 54 56 57 58 60 62 61 58 56 55 54 54 55 56 57 58 58 59 59 60
33 32 37 39 35 34 34 29 27 28 30 33 31 25 20 14 15 17 10 4 4 2 9 20 30 33 25 25 35 31 25 21 17 24 37 43 46 44 45 48 44 43 44 44 44 42 40 39 36 34 32 31 31 32 34 35 37 40 41 43 44 45 47 49 51 53 55 56 56 58 60 60 57 56 54 53 53 54 55 56 57 58 59 60 60 60
35 28 27 36 39 35 32 31 33 35 35 37 34 29 27 22 17 18 16 9 5 3 8 15 21 27 26 26 31 30 26 23 25 38 46 48 50 49 51 51 44 43 47 47 46 44 42 41 38 35 33 31 31 32 34 36 38 40 42 43 45 46 48 50 52 54 54 55 56 58 59 57 55 54 53 52 53 53 54 56 57 58 60 61 61 61
37 32 28 36 39 34 36 40 43 42 37 36 36 34 34 31 23 18 21 23 14 3 4 4 11 31 33 26 33 36 32 32 37 45 49 51 53 53 54 50 43 44 49 48 47 46 44 42 40 38 35 33 33 33 34 37 39 41 43 44 46 47 49 51 52 53 54 55 57 58 57 55 54 53 52 52 52 53 54 56 57 59 61 62 62 62
36 36 36 41 42 43 49 50 45 39 34 33 34 36 37 36 30 15 12 27 29 18 14 5 7 42 53 41 46 50 42 43 45 48 54 55 55 56 54 49 45 47 49 48 48 47 45 44 43 42 38 35 33 33 35 37 39 42 44 45 47 48 50 51 52 52 54 55 57 56 54 53 52 51 51 51 52 53 54 56 58 59 61 62 63 64
34 36 38 43 47 50 50 45 38 33 32 31 32 36 36 35 37 26 15 24 31 30 29 10 3 44 68 55 53 53 47 49 50 54 60 58 56 56 51 47 47 47 48 49 49 48 47 47 46 43 39 35 34 34 35 38 40 42 44 46 47 49 50 51 51 53 54 55 56 54 53 52 51 51 51 51 51 53 55 57 58 60 62 64 65 66
32 36 37 40 44 47 45 42 39 33 29 32 37 41 40 40 45 43 35 31 25 26 26 6 3 45 69 58 53 53 49 52 57 61 63 59 56 54 48 46 47 47 49 50 50 50 50 48 47 44 40 36 34 35 36 38 41 42 45 47 47 49 50 50 52 53 54 55 54 52 52 51 50 50 50 51 52 54 56 58 59 61 64 66 67 67
32 37 36 27 23 26 29 28 29 32 34 38 43 44 45 47 47 44 43 33 23 29 26 9 12 52 66 56 52 52 52 57 63 64 63 61 57 52 47 46 47 49 51 51 51 52 50 48 47 44 41 38 36 36 37 40 41 43 45 46 47 48 49 50 52 53 54 53 52 51 50 50 49 50 50 51 53 55 57 59 61 63 66 66 66 65
34 38 38 28 16 13 17 19 24 34 39 43 49 48 48 51 48 47 44 30 23 32 31 23 35 60 66 60 58 58 59 63 66 65 64 62 57 51 48 48 49 51 53 52 51 50 49 49 47 45 42 39 37 37 39 41 42 43 45 46 47 48 49 51 51 52 53 52 50 50 49 49 49 49 50 52 54 56 58 60 63 65 66 65 65 63
40 41 45 46 41 37 39 41 39 36 34 37 42 44 46 48 49 52 47 35 34 35 36 48 59 59 63 70 65 62 63 65 67 66 62 59 54 51 51 51 51 52 52 51 50 49 50 49 47 45 42 39 38 39 40 42 43 43 45 46 47 48 49 50 51 51 51 49 49 49 48 48 49 49 51 53 55 57 60 62 64 65 65 64 63 62
45 46 49 53 55 54 55 54 49 43 40 41 41 42 46 44 45 54 52 47 48 35 33 58 64 53 65 76 64 60 65 67 67 63 59 56 53 52 53 52 51 51 50 50 50 49 49 48 46 44 41 38 38 39 40 42 43 44 46 47 47 48 49 49 50 49 48 48 48 48 48 47 48 49 52 54 56 59 61 63 63 64 64 63 62 60
46 49 52 54 54 55 56 55 53 51 49 49 48 50 54 49 46 53 55 57 57 45 44 62 62 58 73 74 62 63 68 66 63 60 57 54 50 49 49 48 48 48 48 48 48 47 46 45 43 41 39 38 38 39 40 42 44 45 45 46 47 48 49 49 48 47 46 47 47 46 46 46 47 50 52 55 57 60 61 63 63 63 63 61 59 57
45 50 52 51 51 54 57 57 54 52 52 53 53 57 61 55 50 53 57 62 62 57 60 67 64 69 78 72 66 68 66 62 59 55 52 49 46 46 46 45 45 44 44 45 45 45 44 43 42 41 38 37 37 38 41 42 44 45 45 46 47 47 48 47 46 45 45 45 45 45 45 46 48 50 53 56 58 60 61 62 62 62 62 59 57 55
43 48 49 48 48 51 57 57 52 51 52 51 53 62 65 57 53 60 67 66 60 58 65 67 67 75 79 72 68 67 61 58 55 50 47 45 43 43 42 42 42 41 42 43 43 44 45 44 43 40 37 36 36 38 41 42 43 44 45 46 46 47 46 44 43 43 43 43 43 43 44 46 48 51 53 56 59 60 61 61 62 61 60 58 55 53
42 45 47 47 43 46 54 51 46 48 47 46 57 69 67 59 60 67 70 65 60 62 65 63 66 75 76 69 65 63 60 58 53 47 44 42 40 40 41 42 42 41 41 41 43 46 45 44 42 39 36 34 35 38 40 41 43 44 45 46 46 45 43 41 41 41 41 41 41 41 43 45 48 51 54 57 58 60 61 61 61 60 58 55 54 53
46 47 50 47 38 42 50 47 43 37 27 34 58 70 66 64 68 71 68 66 67 68 64 63 69 76 74 66 62 62 60 54 48 44 42 41 41 41 44 45 44 42 41 42 44 45 43 41 40 37 35 34 35 38 40 41 42 43 44 45 44 42 40 39 40 39 39 39 38 40 42 45 48 51 54 57 58 59 60 60 60 58 56 54 53 53
45 47 50 47 38 36 40 38 31 19 17 38 63 65 59 61 63 61 62 67 70 68 66 69 74 73 67 63 64 61 54 46 43 42 42 42 42 43 45 47 47 44 41 42 43 40 38 38 37 36 36 35 36 38 39 40 42 42 43 43 41 39 38 37 38 37 36 36 37 39 41 44 48 52 55 57 58 59 59 59 58 56 54 53 53 53
48 49 49 47 40 33 30 24 13 12 31 55 62 59 58 59 54 51 56 64 68 67 68 69 69 67 65 64 62 56 49 43 40 40 40 40 40 42 45 46 46 43 39 37 35 34 34 36 36 36 36 35 35 37 38 40 41 42 42 40 37 36 36 35 35 34 33 33 35 38 40 44 48 52 55 57 58 58 58 58 56 55 53 52 53 54
56 53 48 47 41 29 21 19 18 25 42 54 57 61 62 55 48 46 51 63 72 71 68 64 63 67 68 63 57 50 46 42 38 37 37 35 37 40 42 43 41 36 33 31 30 32 34 36 37 36 35 34 35 36 38 39 40 40 39 36 35 34 34 33 32 31 30 32 35 37 40 44 49 53 56 57 57 57 57 57 55 53 52 52 52 54
58 55 51 46 41 33 26 28 34 36 38 50 65 71 65 55 50 47 49 63 76 76 68 62 62 66 66 59 52 46 39 35 35 35 33 32 35 39 39 39 36 31 30 30 31 34 36 36 37 36 34 35 35 36 37 38 39 37 35 33 33 32 32 30 29 28 29 31 34 37 41 45 49 54 56 57 57 57 56 56 54 52 51 52 52 53
57 57 54 46 40 40 34 28 24 19 25 52 74 75 66 58 54 50 49 62 76 76 68 62 61 61 57 51 43 35 29 30 34 35 33 32 36 39 38 36 34 32 33 35 36 36 35 36 36 35 34 34 35 35 37 37 36 34 32 31 31 30 29 27 26 27 29 31 34 38 41 46 50 54 57 57 56 56 56 54 52 51 51 51 52 53
53 57 59 51 43 41 34 22 15 16 32 58 71 69 62 56 51 41 36 52 73 71 60 55 52 47 40 32 27 23 23 29 36 36 34 34 38 40 39 37 35 35 36 37 37 35 34 35 35 34 33 33 34 35 35 35 33 31 30 29 29 27 26 24 24 26 28 31 35 38 42 46 50 54 56 57 56 55 55 53 51 50 50 51 52 53
49 54 55 52 48 47 42 31 25 30 44 59 65 61 55 51 44 25 20 44 68 61 49 49 48 41 32 23 22 25 27 30 35 35 34 37 39 40 39 39 38 37 36 36 34 33 34 34 33 33 32 32 33 34 34 32 30 28 28 27 26 25 23 23 23 25 28 32 35 39 43 47 51 54 56 56 55 54 54 53 51 50 50 51 52 53
45 51 53 54 52 51 47 39 34 40 51 61 65 61 52 43 31 25 34 56 65 54 48 50 50 50 44 35 33 34 32 31 33 34 36 39 39 39 40 39 38 38 36 34 32 32 33 33 32 32 32 32 33 33 31 29 27 26 26 25 24 23 22 22 23 25 28 32 35 39 43 47 51 54 55 56 55 54 53 53 51 50 50 51 52 53
39 41 43 49 51 51 51 43 33 38 54 64 64 58 50 42 38 42 54 62 58 53 51 46 46 51 50 43 41 41 37 35 35 35 38 39 39 39 40 39 39 38 36 33 32 31 32 32 32 31 32 32 32 31 28 26 26 25 25 23 22 21 21 21 22 25 28 32 36 39 43 47 50 53 55 55 54 53 52 52 51 50 50 52 53 54
45 37 34 43 48 44 40 30 22 29 46 54 54 53 51 51 51 52 56 54 51 53 49 44 46 48 44 41 43 45 44 40 36 37 39 40 39 39 39 39 40 38 36 34 32 31 30 30 30 31 31 31 30 28 26 25 25 24 23 21 20 20 20 21 22 25 29 32 35 39 44 47 50 52 54 54 53 52 52 52 51 50 51 52 53 55
48 43 39 45 46 37 31 30 31 39 47 48 49 51 52 54 53 51 52 53 52 50 48 47 48 47 44 42 41 44 47 42 38 39 41 41 40 38 38 39 39 38 37 35 32 31 30 29 29 30 31 30 28 26 24 24 24 23 21 20 19 19 20 20 22 25 29 32 35 39 43 47 50 52 54 54 53 52 51 51 51 51 51 52 54 55
52 54 53 54 54 48 45 47 49 51 50 50 53 53 53 55 54 51 54 56 51 48 50 50 48 48 48 45 44 48 50 44 40 41 42 42 42 39 38 39 39 38 37 35 33 32 30 29 29 29 29 28 26 24 24 24 23 21 19 18 19 19 19 20 22 25 29 31 35 39 43 47 49 51 53 53 53 52 50 50 51 51 51 52 54 55
62 64 61 60 60 56 55 58 56 55 57 58 59 57 54 53 54 53 55 55 51 49 51 51 51 52 50 48 50 53 50 45 43 44 44 44 43 40 39 39 38 38 37 35 34 33 30 30 30 29 28 26 24 24 24 24 22 20 18 18 19 19 19 20 22 25 28 31 35 39 43 46 48 50 52 52 52 51 50 49 50 50 51 52 53 54
61 62 61 62 60 53 54 60 63 65 66 65 64 64 59 54 55 56 57 56 52 51 50 50 52 52 51 52 53 50 46 45 45 44 45 45 42 41 40 38 38 37 35 34 33 32 31 30 29 28 27 25 24 24 24 23 21 18 17 18 19 19 19 20 22 25 27 30 35 39 42 45 47 49 50 51 51 50 49 48 49 49 50 51 52 54
59 61 63 63 61 59 62 66 67 67 67 66 66 67 66 62 61 61 60 58 56 53 51 49 49 50 52 53 51 48 47 46 45 45 45 43 42 42 41 39 38 36 34 34 34 32 31 30 29 28 26 24 24 24 24 22 20 18 18 18 18 18 19 20 22 24 27 30 34 38 41 44 46 48 49 50 50 49 48 48 48 49 50 51 52 53
59 61 61 60 61 64 67 66 65 66 67 67 67 70 69 67 65 64 64 63 58 54 53 51 50 50 50 50 52 52 50 47 46 45 43 41 41 42 41 39 37 35 34 34 33 32 32 31 30 28 26 24 24 25 23 21 19 18 18 18 18 18 19 19 21 24 26 30 34 38 41 43 45 47 49 50 49 48 47 47 47 48 49 49 51 52
59 60 60 58 59 64 67 68 68 70 70 69 69 70 69 67 64 65 67 65 59 54 54 52 49 47 46 46 48 51 50 49 47 44 41 39 40 40 40 39 37 35 35 34 33 33 32 31 30 27 25 24 24 24 22 21 19 18 18 18 18 18 18 19 21 23 26 29 33 37 39 42 44 46 48 49 49 47 46 46 47 47 46 47 48 50
65 67 66 64 66 70 74 75 74 73 74 73 72 70 69 68 66 66 67 65 59 54 53 52 50 48 46 45 45 46 48 49 47 43 40 38 38 39 40 40 38 36 35 35 35 34 33 31 29 26 24 24 24 23 22 20 19 18 18 17 17 17 18 19 21 22 25 29 32 35 38 40 42 45 47 49 49 47 45 45 45 46 45 44 45 47
Wind_Direction
271 269 272 275 278 283 287 293 300 300 296 293 290 289 293 293 295 301 302 297 294 289 288 290 288 287 292 299 306 304 300 299 297 292 288 285 287 291 289 287 286 286 289 288 286 286 286 286 287 288 289 292 293 294 295 295 295 295 295 296 297 298 299 300 301 301 300 301 301 301 301 301 302 302 303 304 305 307 309 309 312 311 306 304 303 301
268 269 279 281 276 280 284 289 298 300 297 292 288 290 293 294 297 302 299 293 294 291 290 293 290 288 293 299 305 305 299 301 298 288 283 282 287 291 291 289 287 286 284 283 284 284 285 285 286 287 289 290 291 292 293 292 292 292 294 295 296 297 298 299 299 299 299 299 300 300 301 302 302 303 304 305 306 308 310 310 311 310 305 303 302 301
265 274 288 282 273 278 280 286 295 297 294 291 288 289 291 295 300 300 296 294 294 291 293 295 290 290 295 299 304 303 296 305 303 289 286 287 290 294 292 288 287 287 285 283 283 283 283 284 284 286 287 288 289 289 289 289 290 291 292 293 295 296 296 297 297 297 298 299 299 301 302 303 304 305 306 307 309 310 311 312 312 309 305 303 303 302
264 278 288 277 274 278 279 284 292 292 292 291 286 286 290 297 300 297 296 294 290 291 294 295 293 294 297 299 302 301 301 310 304 293 298 293 292 292 285 288 295 296 292 286 283 282 282 282 283 285 286 286 286 286 287 288 290 291 291 292 293 293 294 295 296 297 298 298 299 300 302 304 305 306 307 309 311 311 312 313 311 308 306 304 304 303
267 277 279 277 277 277 278 283 287 290 292 290 285 285 290 296 295 292 294 292 289 291 291 297 300 297 298 299 299 304 308 309 295 289 303 297 291 287 283 296 305 302 295 287 284 282 282 283 284 285 284 284 284 286 287 288 289 289 290 291 291 292 293 295 296 297 297 297 298 300 301 302 303 305 306 306 308 309 311 312 310 308 306 305 305 305
269 274 273 276 276 274 277 280 283 289 292 290 286 286 289 294 292 289 292 293 295 295 289 304 311 299 288 268 293 304 306 304 297 292 302 297 288 286 293 304 308 305 298 289 285 284 284 285 284 283 283 283 284 285 285 286 287 288 289 290 291 292 293 295 296 296 296 297 297 298 299 300 301 302 303 304 306 309 312 312 310 309 309 308 307 307
270 274 272 275 275 273 275 277 281 289 293 290 285 285 287 291 291 289 290 292 295 292 287 295 294 284 276 274 292 302 297 303 307 297 303 299 291 297 303 309 312 309 300 287 283 283 284 285 283 283 282 282 282 282 283 284 285 287 288 289 291 292 294 295 295 295 295 296 296 297 298 299 300 302 303 306 308 311 313 313 312 311 310 310 309 309
276 278 275 277 275 272 273 278 284 290 291 286 283 285 285 288 289 288 290 289 289 289 288 288 280 276 278 283 296 300 293 310 306 291 306 303 306 312 311 315 318 314 303 288 283 283 285 286 284 282 281 280 280 280 282 283 284 286 288 289 291 292 293 294 294 294 295 295 295 296 297 298 300 302 304 306 309 312 313 313 313 312 311 311 311 311
279 275 273 273 271 272 276 280 285 287 287 283 281 281 281 286 286 285 288 286 290 293 289 285 275 266 277 285 296 294 299 314 300 290 301 300 315 318 312 320 320 315 306 294 288 289 290 290 287 283 280 279 280 280 282 283 284 286 287 289 291 292 293 293 293 294 294 294 295 295 296 298 299 301 303 306 310 313 313 313 313 312 312 312 312 312
273 270 270 269 269 273 277 278 281 285 285 281 279 278 280 284 283 283 285 285 291 290 278 279 270 249 277 284 282 285 299 312 305 297 287 301 319 317 312 322 321 313 308 301 298 298 298 297 293 287 283 282 282 282 283 284 285 286 287 289 290 291 292 292 293 294 294 294 295 295 297 298 299 300 303 307 311 313 313 313 313 313 313 313 313 312
269 268 267 266 269 273 275 276 279 283 282 278 276 276 280 283 282 281 280 283 291 277 271 279 268 243 267 288 276 279 302 310 306 293 288 309 320 316 318 326 322 313 311 307 306 305 305 304 299 294 289 286 285 283 283 284 284 285 286 288 289 289 290 291 292 293 294 294 294 296 296 297 298 300 304 308 312 313 314 314 314 314 314 313 313 313
268 267 266 267 270 271 273 275 277 278 275 273 270 272 280 285 285 282 274 272 271 266 275 282 265 234 232 263 277 285 298 303 302 298 303 314 321 320 327 331 322 315 311 312 313 309 308 310 308 302 294 288 286 284 284 283 283 284 285 286 287 288 289 290 292 293 293 294 294 295 295 296 298 301 305 309 312 314 315 315 315 315 315 314 314 312
267 267 266 267 268 268 270 271 272 271 267 264 262 265 273 295 309 283 257 253 233 257 272 274 273 243 243 267 281 286 291 296 306 310 309 315 323 327 333 332 321 313 311 315 316 312 310 312 313 310 300 293 289 287 285 283 283 284 285 286 287 287 289 290 291 292 293 293 293 294 294 296 298 302 307 311 313 314 315 315 315 315 315 314 314 312
270 269 265 263 265 266 265 264 265 268 266 260 255 252 240 176 27 270 258 281 259 267 269 262 276 264 263 280 289 288 293 303 308 307 307 316 324 330 334 331 320 311 311 313 313 312 312 312 314 314 307 300 294 289 286 284 284 285 285 286 286 288 288 289 290 291 291 291 292 293 294 296 299 304 308 311 313 314 315 315 315 315 315 314 313 311
266 268 266 263 264 267 266 264 262 262 261 257 250 242 231 215 205 226 248 242 270 293 283 237 242 259 271 286 287 289 298 303 303 298 305 316 321 329 331 327 318 311 311 309 308 309 311 312 314 314 309 303 296 291 287 286 286 286 286 286 287 288 288 288 289 289 290 290 291 292 293 296 300 305 309 311 313 314 315 315 315 315 314 313 312 311
256 262 269 268 265 267 267 265 258 249 247 250 242 230 232 234 231 236 254 258 278 309 286 229 237 261 272 278 280 287 296 298 296 294 303 312 316 324 327 322 316 314 312 309 307 307 308 311 313 312 307 301 295 291 287 287 287 286 286 286 286 287 287 287 288 288 289 290 290 292 293 297 302 306 309 311 313 314 314 314 314 313 313 312 311 310
255 265 272 271 267 266 264 262 255 243 239 241 235 232 238 241 237 238 255 270 279 295 275 254 257 270 276 282 283 285 290 294 293 292 300 308 312 316 320 318 315 314 314 313 312 310 309 311 312 309 304 299 295 291 287 286 286 285 285 285 285 286 286 287 287 288 289 289 290 292 294 299 304 307 310 311 313 313 313 313 312 312 311 311 311 311
255 264 270 271 271 270 267 260 249 239 235 232 232 239 243 237 235 233 242 291 280 255 274 266 268 276 274 280 286 285 289 293 286 288 301 306 307 309 313 316 314 313 314 315 315 315 312 311 311 308 302 298 293 289 287 286 284 284 283 283 284 285 286 286 287 287 288 288 290 292 297 302 305 308 310 312 312 312 312 312 311 311 311 311 312 312
249 256 267 269 270 273 268 253 238 234 230 229 235 240 235 225 225 219 205 261 256 194 279 274 278 278 262 264 282 286 289 287 278 291 303 305 303 304 311 316 312 311 313 314 315 315 313 311 311 308 303 296 292 289 287 285 283 283 282 282 284 284 285 285 285 286 286 288 291 295 300 304 306 309 311 311 311 311 311 310 310 310 311 312 313 313
242 243 260 266 267 269 260 243 236 235 227 224 231 233 233 234 228 219 213 223 225 197 267 282 289 281 265 267 282 286 284 278 281 295 303 306 303 303 312 315 311 309 312 312 313 313 311 311 310 308 304 296 292 290 286 284 282 281 281 282 283 283 284 284 284 285 286 289 293 298 302 305 307 309 310 311 310 309 309 309 310 311 312 313 314 314
236 234 247 258 261 257 250 251 252 250 240 230 228 229 232 230 225 231 234 231 228 217 262 279 285 276 272 277 284 284 282 279 285 297 304 306 306 305 311 314 310 309 311 310 311 311 310 309 308 307 304 297 293 289 285 283 280 280 281 281 282 283 283 283 284 286 288 291 296 300 303 306 308 309 309 309 309 308 308 309 310 312 313 314 314 315
230 229 236 245 251 253 256 260 260 257 252 246 242 243 243 236 228 229 241 239 234 230 237 207 269 273 273 277 281 282 283 284 290 300 304 305 307 308 310 312 311 309 310 310 309 309 308 307 306 305 302 298 293 288 284 281 280 280 280 280 281 282 282 283 284 286 289 294 298 301 304 306 308 309 309 308 307 307 308 309 312 313 314 315 315 315
235 231 234 240 249 256 260 260 256 252 248 244 246 247 248 244 234 224 224 239 235 231 240 230 248 271 273 277 280 281 284 288 294 301 303 304 307 309 310 310 310 309 309 308 307 307 307 305 304 303 301 298 292 287 283 281 280 279 279 280 281 281 282 284 285 288 292 296 300 302 304 307 308 308 308 307 306 307 308 311 313 314 315 315 315 316
231 228 233 242 250 254 256 256 254 250 241 235 240 241 240 243 242 238 235 239 239 235 235 199 222 265 271 276 278 280 285 289 295 300 300 302 305 308 308 308 307 307 306 305 304 304 304 303 302 301 300 297 291 286 282 280 279 279 279 279 280 281 283 284 286 290 294 298 300 303 305 307 308 308 307 307 306 308 310 313 315 316 316 316 316 316
229 227 231 240 254 256 255 256 250 242 236 235 240 241 241 245 247 244 239 237 246 246 232 178 239 260 268 274 275 278 284 288 295 299 298 300 303 304 305 305 304 304 303 302 302 302 302 301 300 298 297 295 290 285 281 279 279 279 279 279 280 282 283 285 288 293 296 298 301 304 306 307 308 308 307 307 308 310 313 315 316 317 317 317 317 317
238 237 235 230 230 238 243 244 243 243 240 236 239 243 246 248 245 241 239 230 235 244 231 219 244 258 268 274 273 276 283 289 296 298 296 299 301 301 302 302 301 301 300 300 301 300 299 298 297 296 295 292 287 283 279 278 278 280 280 280 281 281 283 286 290 295 297 299 302 305 307 307 307 307 307 308 310 313 315 317 318 318 318 318 318 318
244 245 243 238 236 239 245 251 255 255 249 241 245 250 252 253 248 243 239 230 233 240 236 239 249 258 269 273 273 277 285 291 295 297 298 300 301 300 299 298 298 299 298 299 299 297 296 295 295 294 292 289 285 281 278 277 278 279 279 279 280 281 284 288 292 295 297 300 304 306 306 307 307 307 308 310 314 316 318 319 319 319 319 319 319 319
244 245 245 244 243 246 251 256 259 261 259 256 259 261 259 258 252 242 239 241 243 239 240 251 254 257 267 272 275 279 285 290 294 297 299 300 299 297 296 296 296 297 297 296 296 294 294 294 293 292 290 287 284 280 278 277 277 277 278 278 280 282 285 290 293 295 298 302 305 306 306 307 307 308 311 314 317 318 319 320 320 320 319 320 320 319
241 242 245 246 247 248 251 255 257 258 261 261 263 265 263 261 253 245 246 253 250 238 244 259 261 260 267 273 276 281 285 289 294 297 297 296 296 295 296 296 294 294 295 294 293 293 294 293 291 290 288 285 282 279 278 276 275 276 276 278 280 283 287 290 293 296 301 304 305 305 306 307 308 311 314 317 319 320 320 321 320 320 320 320 320 320
238 241 244 247 249 251 252 255 256 256 258 259 260 263 263 259 256 254 257 260 255 248 254 262 264 265 270 273 275 282 289 290 293 296 293 292 295 294 295 295 292 292 293 293 293 292 291 290 289 288 286 283 281 278 276 274 274 275 276 277 280 284 287 290 294 299 302 304 305 305 306 307 311 314 317 320 321 321 322 321 321 321 321 321 322 321
239 244 248 250 252 255 256 257 257 255 256 258 259 261 260 256 255 257 257 258 256 253 257 261 261 264 272 278 279 284 290 291 291 292 291 292 295 293 292 290 289 289 289 289 289 287 287 287 286 285 284 282 279 276 274 273 273 274 276 278 281 284 288 291 296 301 303 304 304 305 307 310 314 318 321 322 324 323 323 322 322 323 323 323 323 322
246 249 251 251 252 255 257 258 257 256 257 257 257 258 255 251 252 254 255 256 254 254 258 259 257 263 276 286 286 286 289 291 291 292 293 295 294 289 286 283 283 284 283 283 283 282 283 284 283 283 282 279 276 274 272 272 272 274 276 278 281 284 288 293 299 302 303 303 304 306 309 314 318 322 324 326 326 325 324 324 324 324 324 324 323 323
256 252 250 248 247 252 256 257 256 255 255 252 253 255 255 252 252 254 255 256 257 257 256 256 260 270 281 286 286 287 291 292 294 295 296 294 289 283 280 280 280 280 280 280 280 281 281 281 280 280 278 275 273 271 270 270 271 273 275 278 281 284 290 296 300 301 302 302 304 308 313 318 322 326 328 328 327 326 326 326 326 326 325 325 325 325
258 254 250 245 243 251 256 254 252 246 240 249 254 257 258 256 255 255 256 259 261 259 258 261 268 276 280 281 283 287 292 295 296 295 292 288 284 282 282 282 280 279 280 281 280 280 279 278 277 276 274 273 271 269 269 269 271 273 275 278 281 286 292 298 299 300 301 302 307 312 317 323 327 330 331 330 329 328 328 328 328 327 327 327 327 326
257 257 254 246 243 249 250 243 234 227 242 252 259 263 263 263 261 259 260 263 265 264 263 265 269 273 276 281 286 288 292 296 293 286 283 283 284 287 287 287 285 283 281 279 278 277 276 274 273 273 272 271 269 267 267 268 270 272 274 277 282 288 295 297 298 298 300 304 310 315 321 327 331 333 333 332 330 330 330 330 329 329 328 328 329 328
252 254 252 246 241 242 233 219 227 249 255 259 264 265 263 262 259 257 259 264 267 269 267 265 269 276 280 284 287 288 291 291 282 275 279 286 291 292 290 289 286 280 275 274 276 275 274 272 271 271 270 267 264 264 264 265 268 271 273 277 284 291 295 295 296 298 301 307 313 319 326 331 334 335 335 334 333 332 332 332 331 330 329 329 330 331
247 247 248 245 241 240 236 233 245 258 264 264 264 263 261 258 257 258 262 269 273 274 270 267 272 278 280 282 286 288 287 280 270 272 284 294 295 291 289 287 283 273 268 274 281 281 277 273 270 269 267 263 261 261 262 264 267 269 273 280 286 291 293 293 295 299 304 311 317 323 329 332 334 335 336 335 335 334 334 333 332 331 331 331 332 333
246 244 243 242 241 242 243 247 251 254 255 258 262 265 265 262 265 268 267 271 276 275 272 271 274 278 281 283 283 279 272 266 268 279 293 297 293 289 289 290 287 280 278 282 285 284 278 273 271 269 265 262 259 259 261 263 265 269 275 282 287 289 290 291 294 300 307 314 320 326 330 333 334 336 337 337 336 335 335 334 333 332 332 332 334 334
245 244 243 242 242 241 240 243 243 238 248 256 263 269 269 268 271 271 262 267 273 275 276 277 279 282 284 281 270 261 260 266 276 289 298 295 290 289 290 291 290 287 286 287 286 282 276 272 269 266 263 260 257 257 260 262 265 271 278 283 286 286 287 290 294 302 309 316 323 328 331 333 335 337 338 338 337 337 336 335 334 333 333 334 335 335
235 238 237 234 236 238 238 241 244 244 250 258 263 265 265 268 273 264 244 261 270 275 282 286 288 288 283 271 261 263 267 275 284 294 296 291 289 290 290 290 291 290 290 289 286 281 276 271 267 263 260 256 255 256 258 262 267 274 279 282 283 283 284 288 295 305 313 320 325 329 332 334 336 338 340 339 338 338 337 336 334 334 334 334 335 335
229 232 230 228 232 235 235 240 246 247 252 259 261 260 260 264 259 239 245 263 272 279 288 294 295 292 284 273 266 267 274 284 290 291 292 290 289 289 290 292 293 293 292 288 283 278 273 267 262 260 256 253 253 255 258 264 270 275 277 278 278 279 282 289 298 309 317 322 328 331 333 335 338 340 341 340 339 339 338 336 335 335 335 335 336 336
225 226 225 226 229 231 234 241 247 250 257 261 258 256 257 251 240 247 263 274 281 284 287 291 293 291 289 282 271 266 274 286 290 288 289 290 289 291 294 295 295 294 292 287 281 275 269 263 259 256 254 252 252 254 258 266 270 272 273 273 273 277 283 292 303 313 320 326 330 333 335 337 340 341 342 341 339 339 338 337 336 335 336 336 337 337
233 229 221 223 228 230 233 237 238 251 267 269 256 246 249 251 253 268 279 282 286 287 284 283 284 285 289 287 276 268 272 281 288 288 288 288 289 291 294 294 294 293 290 285 280 274 267 260 255 252 251 250 250 254 261 265 267 268 269 269 272 278 286 296 307 316 323 329 333 335 338 340 342 343 343 341 340 339 339 338 336 336 336 337 337 338
235 230 227 229 231 225 217 224 243 265 279 280 264 255 261 265 269 279 282 280 283 287 282 279 281 281 282 283 278 271 271 277 285 287 285 286 287 289 291 291 291 290 288 284 279 271 263 256 252 249 247 247 250 255 261 262 262 262 263 266 273 281 289 299 310 319 327 332 335 338 341 342 343 344 344 342 340 339 340 339 337 336 337 337 338 338
238 245 250 247 240 239 242 251 264 276 278 274 270 274 280 278 274 278 280 278 281 284 282 283 285 283 280 278 274 271 272 275 280 283 282 281 282 286 287 288 288 288 286 282 276 268 259 253 250 246 244 246 250 254 257 257 257 257 260 266 275 283 293 303 313 322 329 334 337 341 343 343 345 345 344 342 341 340 340 340 338 337 337 338 338 338
251 258 260 252 245 247 254 258 264 270 268 267 272 281 286 281 274 274 275 275 278 284 288 289 288 284 279 275 272 273 274 272 274 278 278 276 278 282 284 285 285 284 282 278 272 264 255 250 247 243 242 246 249 252 253 252 253 255 259 267 277 286 296 306 316 324 331 336 340 343 344 345 346 346 344 343 341 340 341 340 339 338 337 338 338 338
249 252 249 245 243 242 245 253 263 271 272 273 276 280 282 279 272 268 269 272 277 284 289 291 288 283 278 273 272 273 272 268 269 273 273 272 276 281 282 282 282 280 278 273 266 258 251 248 244 240 242 245 247 249 250 249 249 253 260 269 278 288 298 308 318 325 332 337 342 344 345 345 346 346 345 344 342 341 341 341 340 339 338 338 339 339
245 248 242 238 240 242 247 259 270 274 272 272 274 276 276 274 270 269 270 272 276 282 286 287 284 280 276 273 272 273 271 266 265 268 269 270 275 280 280 279 278 277 274 267 259 251 246 242 239 238 240 242 244 246 246 246 248 253 260 269 280 289 299 309 319 326 333 339 343 345 345 345 346 346 345 344 342 341 341 341 341 341 339 339 340 340
247 246 241 239 242 245 249 258 265 264 261 265 270 273 275 276 276 276 275 273 276 282 283 280 278 278 277 274 272 272 270 265 263 265 266 269 275 277 277 277 275 273 269 263 254 247 242 237 235 237 238 240 242 243 243 244 246 252 260 270 281 290 300 311 320 327 335 340 344 345 344 344 346 346 345 344 342 341 342 342 342 342 341 341 341 341
242 242 242 242 242 243 247 257 265 262 261 269 277 281 282 284 283 281 278 274 275 281 282 278 277 279 277 272 270 270 268 264 263 263 265 270 275 275 274 274 271 267 263 256 247 240 236 232 232 234 235 238 240 240 240 242 246 253 261 272 282 292 302 312 320 329 336 341 344 345 344 344 345 346 345 345 343 343 343 343 343 343 342 342 343 342
241 244 245 243 244 250 258 267 272 268 267 275 284 286 285 283 280 278 278 276 277 282 283 278 275 275 274 270 268 268 266 263 260 261 266 271 273 272 271 270 268 264 259 252 244 238 232 229 231 233 235 238 239 238 239 242 246 254 263 273 284 294 304 313 321 330 337 341 344 344 343 344 345 345 345 345 343 343 343 344 343 343 343 344 344 343
Height
3143 3142 3141 3141 3141 3140 3139 3138 3137 3136 3135 3134 3133 3131 3129 3126 3124 3125 3124 3121 3119 3115 3112 3112 3108 3105 3104 3104 3106 3105 3102 3099 3098 3097 3097 3097 3095 3093 3092 3090 3089 3089 3088 3087 3084 3083 3082 3080 3079 3078 3077 3077 3076 3076 3076 3075 3074 3073 3072 3071 3071 3070 3069 3069 3068 3066 3065 3064 3063 3063 3062 3061 3060 3058 3057 3056 3054 3053 3051 3048 3046 3044 3041 3039 3037 3035
3141 3138 3138 3139 3138 3137 3137 3135 3134 3133 3133 3131 3130 3128 3126 3123 3120 3122 3122 3118 3116 3111 3107 3109 3104 3099 3100 3099 3101 3101 3098 3096 3095 3094 3094 3093 3092 3089 3088 3087 3086 3086 3084 3083 3081 3079 3078 3077 3075 3074 3073 3073 3072 3072 3072 3071 3071 3069 3068 3068 3066 3066 3065 3064 3064 3062 3061 3059 3058 3057 3056 3056 3055 3053 3052 3051 3049 3048 3046 3044 3041 3039 3036 3034 3033 3030
3137 3135 3136 3137 3135 3134 3134 3133 3132 3130 3130 3129 3127 3125 3122 3121 3118 3117 3118 3116 3113 3108 3103 3104 3097 3091 3094 3095 3095 3096 3094 3094 3092 3091 3091 3090 3088 3086 3085 3085 3083 3082 3081 3079 3078 3076 3075 3073 3072 3071 3070 3070 3069 3069 3069 3068 3067 3066 3064 3064 3063 3061 3060 3060 3059 3058 3056 3054 3053 3052 3050 3049 3048 3047 3045 3044 3042 3041 3039 3037 3035 3032 3030 3028 3026 3024
3134 3133 3134 3134 3132 3132 3131 3130 3129 3127 3127 3126 3125 3122 3119 3119 3117 3113 3114 3113 3111 3107 3101 3099 3090 3082 3086 3088 3090 3091 3089 3090 3089 3087 3088 3086 3085 3084 3082 3081 3080 3079 3077 3075 3074 3072 3071 3070 3068 3068 3067 3066 3066 3065 3065 3064 3063 3062 3060 3059 3058 3057 3056 3055 3054 3052 3051 3050 3048 3047 3045 3043 3042 3040 3039 3037 3036 3034 3032 3030 3028 3026 3023 3021 3019 3017
3132 3132 3131 3131 3130 3129 3128 3127 3126 3124 3124 3123 3122 3120 3116 3117 3117 3112 3111 3109 3108 3106 3101 3099 3086 3071 3075 3081 3083 3086 3084 3084 3085 3084 3085 3083 3080 3080 3078 3078 3077 3074 3073 3072 3070 3068 3067 3066 3065 3064 3063 3062 3062 3061 3061 3060 3059 3057 3056 3055 3054 3053 3051 3050 3049 3047 3046 3045 3044 3042 3041 3039 3038 3037 3035 3033 3032 3030 3028 3025 3022 3020 3017 3014 3012 3009
3129 3130 3128 3128 3127 3127 3126 3124 3123 3122 3120 3119 3119 3118 3115 3115 3114 3111 3110 3106 3104 3102 3099 3103 3091 3066 3065 3075 3076 3080 3080 3079 3081 3080 3080 3079 3077 3077 3075 3074 3073 3070 3069 3068 3066 3064 3063 3062 3061 3060 3059 3058 3058 3058 3057 3056 3055 3053 3052 3051 3049 3048 3046 3045 3043 3042 3041 3040 3039 3037 3036 3035 3034 3033 3031 3029 3027 3024 3021 3018 3016 3013 3011 3008 3006 3004
3127 3127 3126 3125 3124 3123 3123 3120 3121 3120 3117 3115 3115 3116 3114 3112 3111 3109 3109 3106 3102 3099 3096 3103 3101 3072 3059 3067 3071 3074 3076 3075 3076 3076 3075 3075 3073 3073 3072 3070 3068 3067 3065 3063 3061 3060 3059 3057 3056 3055 3055 3054 3054 3053 3052 3051 3050 3049 3047 3046 3044 3043 3041 3040 3039 3038 3037 3035 3034 3033 3031 3030 3027 3025 3024 3022 3019 3016 3013 3010 3008 3006 3005 3003 3000 2998
3123 3123 3123 3122 3121 3120 3119 3117 3118 3118 3115 3111 3111 3112 3111 3110 3109 3107 3107 3105 3100 3096 3092 3096 3102 3081 3056 3056 3065 3068 3071 3072 3072 3072 3070 3070 3069 3068 3066 3065 3064 3062 3060 3058 3056 3055 3054 3053 3052 3051 3050 3050 3050 3049 3048 3047 3046 3044 3043 3041 3040 3038 3036 3035 3034 3033 3032 3031 3030 3028 3026 3025 3022 3020 3018 3015 3012 3009 3006 3003 3001 2999 2998 2996 2994 2991
3121 3119 3119 3119 3118 3116 3116 3115 3115 3115 3113 3109 3108 3109 3108 3108 3107 3105 3104 3103 3099 3094 3087 3086 3095 3085 3057 3050 3060 3063 3065 3068 3067 3067 3067 3065 3065 3063 3062 3061 3058 3057 3055 3053 3052 3051 3050 3049 3047 3046 3046 3046 3045 3044 3043 3042 3041 3039 3038 3037 3035 3034 3032 3031 3030 3029 3028 3026 3025 3023 3021 3020 3018 3015 3012 3009 3007 3003 3000 2997 2995 2993 2991 2989 2987 2984
3117 3115 3115 3115 3114 3113 3113 3113 3112 3112 3110 3108 3107 3106 3106 3106 3103 3103 3101 3099 3100 3092 3080 3079 3087 3082 3057 3046 3056 3058 3059 3063 3062 3063 3063 3061 3061 3059 3058 3057 3054 3052 3050 3049 3049 3047 3046 3045 3043 3042 3042 3041 3040 3040 3038 3037 3036 3035 3033 3032 3031 3029 3028 3026 3026 3025 3023 3022 3020 3018 3016 3014 3012 3010 3007 3004 3001 2998 2995 2992 2990 2987 2985 2983 2980 2978
3113 3111 3111 3111 3111 3110 3110 3109 3108 3109 3107 3105 3105 3103 3104 3103 3100 3101 3097 3098 3099 3085 3073 3075 3079 3078 3061 3045 3049 3053 3054 3058 3058 3058 3058 3056 3056 3055 3054 3052 3050 3048 3047 3046 3045 3043 3042 3041 3040 3039 3038 3038 3036 3035 3034 3032 3031 3030 3029 3028 3026 3025 3023 3022 3022 3020 3019 3017 3015 3014 3012 3009 3007 3004 3001 2998 2996 2993 2989 2986 2984 2981 2979 2976 2974 2971
3108 3106 3106 3106 3107 3107 3106 3106 3105 3105 3103 3102 3102 3102 3102 3101 3098 3097 3094 3097 3096 3078 3069 3073 3073 3074 3061 3043 3045 3050 3050 3053 3054 3053 3053 3052 3052 3051 3050 3047 3045 3045 3043 3043 3041 3040 3039 3038 3037 3036 3035 3034 3033 3032 3030 3028 3026 3025 3024 3024 3022 3020 3019 3018 3017 3016 3015 3013 3011 3009 3007 3004 3001 2998 2995 2992 2989 2986 2983 2980 2977 2974 2972 2970 2968 2965
3102 3101 3102 3103 3103 3104 3103 3102 3101 3100 3099 3099 3099 3101 3102 3101 3100 3096 3092 3093 3087 3073 3068 3071 3071 3065 3049 3038 3043 3047 3047 3049 3049 3049 3048 3047 3047 3046 3044 3043 3041 3041 3039 3038 3037 3036 3035 3034 3033 3032 3031 3030 3029 3027 3026 3023 3022 3021 3020 3019 3017 3016 3014 3014 3013 3012 3010 3009 3007 3005 3002 2999 2996 2993 2990 2987 2984 2980 2976 2973 2970 2967 2965 2963 2961 2958
3097 3095 3097 3099 3098 3098 3098 3097 3097 3095 3095 3095 3095 3097 3098 3100 3101 3095 3091 3088 3079 3068 3066 3070 3069 3054 3036 3034 3038 3040 3043 3046 3045 3044 3043 3042 3042 3041 3039 3039 3038 3037 3035 3033 3032 3031 3030 3029 3028 3027 3026 3025 3024 3022 3020 3018 3017 3016 3015 3014 3013 3011 3010 3009 3008 3007 3006 3004 3002 2999 2997 2994 2991 2988 2985 2982 2979 2975 2971 2967 2964 2961 2959 2956 2954 2951
3095 3089 3090 3094 3094 3093 3093 3093 3093 3092 3091 3091 3091 3093 3091 3093 3094 3089 3085 3081 3073 3065 3063 3067 3063 3043 3031 3032 3032 3034 3039 3041 3041 3040 3039 3038 3037 3036 3035 3035 3034 3033 3031 3029 3028 3027 3025 3024 3023 3022 3021 3020 3018 3017 3015 3014 3013 3012 3011 3009 3008 3007 3006 3005 3004 3002 3000 2998 2996 2994 2991 2989 2986 2983 2980 2977 2973 2969 2966 2962 2958 2956 2953 2951 2948 2945
3091 3084 3084 3088 3088 3089 3089 3088 3089 3088 3088 3087 3088 3088 3085 3085 3086 3084 3081 3076 3073 3070 3060 3055 3047 3032 3029 3029 3027 3032 3035 3035 3037 3035 3035 3035 3033 3032 3031 3030 3030 3028 3027 3025 3023 3022 3020 3019 3018 3017 3016 3015 3014 3013 3011 3010 3009 3008 3007 3005 3004 3003 3001 3000 2998 2996 2995 2993 2991 2989 2986 2984 2981 2978 2975 2971 2968 2964 2960 2957 2953 2951 2948 2945 2942 2939
3087 3081 3081 3083 3083 3085 3085 3084 3084 3083 3083 3083 3081 3080 3079 3081 3083 3082 3080 3074 3076 3073 3054 3041 3034 3025 3026 3024 3020 3028 3030 3030 3032 3030 3031 3031 3028 3028 3027 3026 3026 3023 3022 3020 3018 3017 3015 3014 3013 3011 3011 3010 3009 3008 3006 3005 3004 3003 3002 3000 2999 2998 2996 2995 2993 2991 2989 2987 2985 2983 2981 2978 2975 2972 2969 2965 2962 2958 2955 2952 2948 2945 2942 2939 2936 2933
3085 3080 3078 3079 3079 3080 3080 3079 3079 3078 3079 3077 3075 3075 3077 3080 3080 3080 3080 3075 3076 3073 3052 3034 3028 3022 3022 3019 3015 3021 3025 3024 3026 3025 3027 3026 3024 3023 3022 3021 3020 3018 3016 3015 3013 3012 3010 3008 3007 3006 3006 3005 3004 3003 3002 3001 3000 2998 2997 2995 2994 2993 2991 2989 2987 2985 2983 2981 2980 2978 2975 2973 2969 2967 2963 2960 2956 2953 2950 2947 2943 2940 2936 2933 2930 2926
3083 3079 3076 3076 3076 3076 3074 3073 3073 3073 3073 3071 3070 3073 3074 3075 3075 3075 3077 3073 3071 3071 3052 3032 3024 3015 3013 3015 3014 3017 3020 3019 3020 3021 3022 3022 3019 3018 3017 3016 3014 3012 3011 3009 3007 3006 3004 3003 3002 3000 3000 2999 2998 2998 2996 2995 2994 2993 2992 2990 2989 2988 2986 2984 2982 2980 2978 2976 2974 2972 2969 2967 2964 2961 2958 2954 2951 2948 2945 2942 2938 2934 2930 2927 2923 2919
3079 3078 3074 3073 3071 3071 3068 3066 3065 3064 3066 3067 3067 3069 3069 3069 3069 3068 3070 3066 3063 3063 3051 3036 3024 3005 3000 3009 3012 3013 3014 3013 3015 3017 3018 3017 3014 3013 3012 3010 3009 3007 3005 3004 3002 3000 2998 2997 2996 2995 2994 2993 2993 2992 2991 2990 2989 2987 2986 2985 2984 2982 2980 2979 2977 2975 2973 2971 2969 2966 2963 2961 2958 2955 2952 2949 2947 2944 2940 2937 2933 2928 2924 2920 2916 2911
3075 3074 3072 3069 3066 3063 3058 3055 3055 3055 3059 3062 3062 3063 3062 3063 3065 3064 3063 3059 3058 3058 3051 3043 3028 2999 2991 3005 3008 3007 3009 3008 3009 3013 3012 3011 3009 3008 3007 3005 3003 3002 2999 2998 2997 2994 2993 2991 2990 2989 2989 2988 2987 2987 2985 2984 2983 2982 2981 2980 2979 2977 2975 2973 2972 2970 2968 2966 2963 2961 2958 2955 2953 2950 2947 2945 2942 2939 2935 2931 2927 2923 2918 2913 2908 2903
3068 3067 3066 3063 3058 3052 3048 3048 3050 3052 3055 3056 3056 3056 3054 3056 3060 3060 3058 3052 3051 3051 3043 3042 3031 2997 2985 3000 3003 3002 3005 3002 3004 3007 3006 3005 3003 3002 3001 2999 2997 2996 2994 2993 2991 2988 2987 2985 2984 2984 2983 2982 2982 2981 2980 2979 2978 2977 2976 2975 2974 2972 2970 2969 2968 2966 2963 2961 2958 2955 2953 2950 2948 2945 2942 2940 2937 2933 2930 2926 2922 2917 2911 2906 2901 2896
3063 3062 3060 3056 3051 3046 3044 3046 3048 3048 3051 3052 3051 3050 3049 3052 3052 3049 3047 3041 3042 3042 3034 3038 3032 2995 2980 2994 2997 2996 3000 2998 2999 3001 2999 2999 2998 2996 2995 2993 2991 2990 2988 2987 2985 2983 2981 2979 2978 2977 2977 2977 2976 2975 2975 2973 2973 2972 2970 2970 2969 2967 2966 2965 2963 2961 2959 2956 2954 2950 2948 2945 2943 2940 2937 2934 2931 2928 2924 2920 2916 2910 2905 2899 2895 2890
3059 3058 3054 3050 3046 3044 3042 3042 3043 3044 3047 3047 3044 3043 3043 3042 3040 3038 3036 3034 3035 3033 3028 3037 3029 2990 2976 2989 2991 2991 2995 2994 2994 2995 2994 2994 2992 2991 2990 2988 2986 2984 2983 2982 2979 2977 2975 2973 2972 2971 2971 2971 2970 2970 2970 2968 2968 2967 2966 2965 2964 2963 2962 2960 2959 2957 2954 2952 2949 2946 2943 2940 2938 2935 2932 2929 2926 2922 2918 2913 2908 2903 2898 2893 2887 2883
3053 3051 3050 3048 3045 3042 3038 3037 3037 3037 3039 3038 3035 3036 3035 3034 3035 3034 3032 3032 3030 3021 3022 3032 3014 2979 2976 2988 2987 2988 2991 2990 2991 2990 2988 2988 2987 2985 2985 2982 2981 2979 2977 2976 2974 2972 2970 2967 2966 2966 2966 2966 2965 2965 2965 2964 2963 2962 2961 2961 2960 2959 2958 2956 2954 2952 2949 2947 2944 2941 2938 2935 2933 2930 2926 2923 2919 2916 2911 2906 2901 2896 2891 2886 2880 2875
3046 3044 3044 3041 3037 3034 3029 3026 3027 3027 3029 3029 3028 3029 3030 3029 3030 3028 3026 3027 3020 3012 3018 3016 2990 2972 2980 2985 2982 2985 2987 2985 2986 2985 2982 2982 2980 2980 2979 2977 2975 2973 2972 2971 2969 2967 2965 2962 2961 2961 2961 2961 2961 2961 2960 2960 2959 2958 2957 2957 2956 2955 2953 2952 2950 2947 2945 2942 2939 2936 2933 2930 2928 2924 2921 2918 2913 2909 2904 2899 2894 2889 2884 2878 2873 2868
3040 3036 3034 3029 3023 3020 3018 3017 3020 3022 3023 3022 3022 3024 3024 3022 3023 3022 3019 3014 3010 3009 3008 2994 2978 2979 2980 2974 2977 2984 2983 2981 2980 2978 2977 2976 2974 2974 2973 2971 2969 2967 2966 2965 2963 2961 2959 2958 2957 2956 2956 2956 2956 2956 2956 2955 2955 2954 2953 2952 2952 2951 2949 2947 2945 2943 2940 2937 2934 2931 2928 2926 2923 2919 2916 2912 2907 2902 2897 2892 2887 2882 2877 2871 2866 2861
3033 3028 3024 3021 3016 3015 3015 3016 3019 3019 3017 3017 3018 3018 3017 3016 3018 3015 3007 3002 3005 3006 2993 2978 2981 2985 2970 2963 2975 2982 2979 2977 2975 2973 2972 2970 2969 2968 2966 2965 2963 2961 2960 2960 2958 2956 2955 2954 2953 2952 2952 2952 2952 2952 2951 2951 2950 2949 2949 2948 2947 2946 2944 2943 2941 2938 2936 2932 2929 2926 2924 2921 2918 2914 2911 2906 2901 2896 2891 2886 2881 2875 2870 2865 2859 2854
3025 3020 3017 3016 3013 3012 3013 3013 3014 3014 3013 3013 3013 3011 3009 3009 3009 3005 2999 2995 2997 2994 2979 2974 2983 2978 2959 2960 2975 2976 2973 2974 2971 2968 2967 2964 2963 2962 2960 2959 2957 2955 2955 2954 2953 2952 2951 2949 2948 2947 2947 2947 2947 2947 2946 2946 2945 2945 2945 2944 2943 2941 2940 2938 2936 2934 2931 2927 2925 2922 2919 2917 2914 2910 2906 2900 2896 2891 2886 2880 2875 2869 2864 2858 2852 2847
3018 3012 3012 3013 3010 3007 3008 3007 3009 3011 3008 3007 3007 3004 3000 3000 3001 2999 2992 2987 2987 2984 2976 2974 2976 2965 2952 2959 2970 2969 2968 2969 2966 2963 2961 2958 2957 2956 2954 2953 2950 2949 2949 2949 2948 2947 2945 2943 2942 2941 2941 2941 2942 2941 2941 2941 2941 2941 2940 2939 2938 2937 2935 2933 2931 2929 2926 2923 2920 2918 2915 2913 2909 2905 2901 2896 2891 2885 2880 2874 2869 2863 2857 2851 2845 2839
3013 3007 3009 3011 3005 3000 3000 3000 3004 3005 3002 3002 3002 2995 2990 2994 2995 2989 2980 2977 2981 2978 2971 2970 2967 2952 2945 2955 2963 2962 2962 2963 2960 2957 2954 2953 2952 2950 2948 2946 2944 2944 2943 2942 2942 2940 2938 2937 2935 2935 2935 2936 2936 2936 2935 2936 2936 2936 2936 2934 2933 2932 2930 2928 2926 2923 2921 2918 2916 2913 2911 2908 2905 2901 2896 2891 2885 2880 2874 2868 2862 2856 2850 2844 2839 2833
3009 3005 3005 3007 3000 2992 2992 2995 2996 2996 2997 2998 2990 2977 2979 2987 2983 2974 2970 2972 2973 2968 2965 2966 2958 2942 2940 2951 2957 2955 2955 2955 2952 2949 2948 2947 2946 2944 2941 2939 2938 2937 2936 2936 2935 2933 2931 2930 2929 2929 2929 2929 2929 2930 2930 2931 2931 2931 2930 2929 2928 2926 2925 2923 2921 2918 2916 2914 2911 2909 2906 2903 2900 2895 2891 2885 2879 2873 2867 2861 2855 2849 2843 2838 2833 2828
3003 3000 2999 3001 2993 2985 2988 2990 2988 2992 2994 2983 2966 2961 2970 2976 2969 2964 2967 2967 2963 2960 2960 2955 2943 2936 2943 2950 2950 2947 2947 2946 2943 2942 2941 2939 2938 2936 2933 2931 2930 2930 2930 2929 2928 2926 2925 2924 2923 2923 2923 2923 2923 2924 2925 2925 2925 2925 2925 2924 2923 2921 2920 2918 2916 2914 2911 2909 2907 2905 2902 2898 2894 2890 2885 2879 2873 2867 2861 2855 2849 2842 2837 2832 2827 2822
2996 2994 2993 2993 2987 2982 2984 2985 2985 2987 2979 2959 2949 2955 2963 2962 2959 2960 2962 2957 2952 2952 2951 2942 2936 2938 2944 2944 2942 2940 2939 2938 2937 2934 2932 2931 2930 2928 2925 2924 2923 2922 2923 2922 2921 2920 2920 2918 2917 2917 2917 2917 2918 2918 2919 2920 2920 2919 2919 2918 2917 2916 2914 2912 2911 2909 2907 2905 2903 2900 2897 2893 2889 2884 2879 2873 2867 2861 2855 2849 2842 2836 2831 2826 2821 2816
2989 2989 2988 2987 2984 2980 2980 2983 2981 2970 2955 2946 2949 2955 2955 2952 2953 2955 2952 2946 2943 2944 2941 2936 2934 2936 2936 2935 2935 2934 2933 2932 2930 2926 2925 2925 2924 2922 2919 2918 2916 2916 2916 2915 2915 2915 2914 2912 2912 2911 2911 2912 2912 2913 2913 2914 2914 2914 2913 2913 2912 2910 2909 2907 2906 2904 2902 2900 2898 2895 2892 2888 2883 2878 2873 2867 2861 2855 2849 2843 2837 2831 2826 2821 2816 2811
2981 2983 2981 2980 2979 2975 2974 2975 2965 2949 2946 2951 2951 2947 2946 2945 2946 2947 2942 2936 2933 2932 2931 2931 2931 2930 2928 2927 2928 2928 2927 2926 2922 2919 2921 2921 2919 2917 2914 2912 2911 2910 2909 2909 2910 2909 2908 2907 2906 2906 2907 2907 2907 2908 2908 2908 2909 2909 2908 2908 2907 2905 2904 2902 2901 2900 2898 2896 2894 2891 2887 2883 2878 2873 2868 2862 2856 2849 2843 2837 2831 2826 2821 2816 2811 2805
2973 2974 2974 2972 2970 2968 2966 2962 2954 2948 2951 2949 2938 2932 2936 2939 2941 2943 2938 2928 2921 2919 2922 2926 2926 2923 2920 2920 2921 2922 2922 2919 2914 2913 2917 2918 2915 2911 2908 2906 2905 2905 2905 2905 2905 2904 2903 2902 2902 2902 2902 2902 2902 2903 2903 2904 2904 2904 2903 2903 2901 2900 2899 2898 2897 2895 2894 2892 2889 2886 2882 2877 2873 2868 2862 2856 2850 2844 2838 2832 2826 2822 2816 2811 2806 2801
2963 2964 2967 2964 2961 2962 2961 2955 2952 2950 2942 2931 2923 2925 2933 2937 2939 2942 2938 2921 2906 2905 2914 2920 2919 2916 2915 2915 2916 2916 2915 2912 2908 2908 2912 2913 2908 2904 2903 2902 2901 2901 2901 2901 2900 2899 2898 2897 2897 2897 2897 2897 2898 2898 2899 2899 2899 2899 2899 2898 2897 2896 2894 2893 2892 2891 2890 2888 2885 2881 2877 2872 2868 2863 2857 2850 2844 2838 2832 2827 2822 2817 2812 2807 2802 2797
2954 2956 2960 2958 2955 2957 2955 2946 2942 2936 2926 2922 2923 2926 2931 2933 2933 2939 2935 2911 2891 2894 2908 2912 2911 2911 2911 2910 2909 2909 2908 2904 2902 2903 2905 2904 2900 2899 2898 2897 2897 2897 2896 2896 2895 2894 2893 2893 2893 2893 2893 2893 2893 2894 2894 2895 2895 2895 2894 2893 2892 2891 2890 2889 2889 2888 2886 2884 2880 2876 2872 2868 2863 2858 2851 2845 2839 2833 2827 2822 2818 2813 2808 2802 2797 2792
2945 2947 2949 2948 2945 2946 2944 2936 2929 2923 2920 2922 2924 2925 2928 2928 2931 2937 2924 2895 2884 2894 2902 2903 2905 2907 2908 2907 2905 2903 2900 2898 2897 2898 2898 2896 2894 2894 2893 2892 2892 2891 2891 2890 2890 2889 2888 2888 2888 2888 2888 2888 2889 2890 2890 2890 2891 2891 2890 2889 2889 2888 2887 2886 2885 2884 2882 2880 2876 2872 2868 2864 2858 2852 2846 2840 2834 2828 2823 2818 2814 2809 2804 2799 2794 2789
2934 2934 2935 2934 2933 2935 2934 2926 2918 2915 2916 2918 2918 2919 2924 2927 2930 2924 2901 2883 2888 2898 2899 2899 2901 2900 2902 2902 2899 2896 2895 2894 2893 2892 2891 2890 2888 2887 2887 2886 2886 2884 2884 2884 2883 2883 2883 2882 2882 2883 2883 2884 2884 2885 2886 2886 2886 2887 2886 2886 2885 2884 2884 2883 2881 2880 2879 2876 2872 2868 2864 2859 2854 2847 2841 2836 2830 2825 2819 2814 2810 2805 2801 2796 2791 2786
2925 2923 2922 2923 2923 2923 2921 2917 2913 2909 2908 2910 2910 2914 2921 2922 2915 2900 2885 2886 2895 2897 2897 2899 2896 2893 2895 2896 2893 2891 2890 2888 2887 2886 2885 2884 2883 2882 2881 2880 2879 2878 2878 2877 2877 2876 2876 2876 2877 2878 2878 2879 2880 2881 2882 2882 2882 2882 2882 2882 2882 2881 2880 2879 2878 2877 2875 2872 2868 2864 2860 2855 2849 2843 2838 2832 2826 2822 2816 2811 2806 2801 2797 2793 2787 2783
2914 2913 2910 2909 2909 2911 2912 2913 2909 2901 2897 2901 2905 2907 2908 2904 2894 2885 2885 2891 2893 2891 2893 2895 2891 2889 2890 2888 2887 2886 2883 2882 2882 2880 2879 2878 2877 2877 2875 2874 2873 2872 2871 2871 2870 2870 2870 2871 2872 2873 2873 2875 2876 2876 2878 2878 2878 2878 2879 2878 2879 2878 2877 2876 2874 2873 2871 2868 2864 2860 2856 2850 2845 2839 2834 2828 2823 2818 2813 2808 2803 2798 2794 2789 2784 2779
2904 2903 2899 2895 2896 2899 2899 2895 2889 2885 2886 2892 2894 2892 2889 2886 2882 2883 2886 2887 2886 2885 2887 2886 2885 2885 2884 2883 2883 2880 2877 2878 2877 2874 2873 2873 2871 2871 2870 2868 2867 2866 2865 2865 2864 2864 2865 2865 2867 2868 2869 2870 2871 2872 2873 2873 2874 2874 2875 2874 2875 2874 2873 2872 2871 2869 2867 2864 2860 2856 2851 2846 2841 2836 2831 2826 2821 2815 2810 2805 2800 2795 2791 2786 2781 2776
2888 2887 2885 2882 2880 2880 2877 2873 2874 2877 2879 2881 2880 2879 2877 2875 2875 2878 2879 2878 2878 2878 2878 2879 2879 2878 2878 2879 2877 2874 2872 2873 2871 2869 2868 2867 2866 2865 2864 2862 2862 2861 2860 2859 2858 2858 2859 2860 2861 2863 2863 2865 2867 2867 2868 2869 2869 2870 2870 2870 2870 2870 2869 2868 2867 2865 2863 2860 2856 2852 2847 2842 2837 2833 2828 2823 2817 2812 2807 2802 2797 2792 2788 2783 2778 2772
2874 2877 2876 2873 2870 2868 2866 2866 2869 2871 2868 2868 2868 2869 2868 2866 2866 2868 2868 2867 2868 2869 2869 2871 2870 2870 2872 2871 2868 2866 2866 2866 2865 2863 2862 2861 2860 2859 2857 2856 2856 2855 2854 2853 2852 2852 2853 2854 2855 2857 2858 2860 2862 2862 2863 2864 2864 2865 2866 2866 2866 2866 2865 2864 2863 2861 2858 2855 2852 2848 2843 2838 2834 2830 2825 2820 2815 2809 2804 2800 2795 2790 2785 2780 2775 2770
2867 2870 2867 2864 2864 2862 2857 2856 2859 2859 2857 2859 2860 2858 2858 2857 2854 2855 2856 2856 2859 2861 2862 2863 2862 2862 2863 2861 2859 2858 2858 2858 2857 2856 2854 2854 2853 2852 2851 2850 2849 2849 2848 2847 2847 2847 2848 2849 2850 2851 2853 2855 2856 2857 2858 2859 2860 2861 2861 2862 2862 2862 2861 2860 2859 2857 2854 2851 2847 2843 2839 2835 2831 2827 2822 2818 2813 2807 2802 2797 2793 2788 2783 2778 2773 2767
2859 2860 2855 2853 2854 2850 2844 2846 2852 2851 2849 2853 2853 2850 2849 2848 2845 2845 2847 2848 2851 2854 2854 2855 2854 2852 2852 2852 2851 2852 2851 2850 2849 2848 2847 2847 2846 2844 2844 2843 2842 2843 2842 2841 2841 2841 2842 2843 2845 2846 2848 2850 2851 2852 2853 2854 2855 2856 2857 2857 2858 2858 2857 2856 2855 2853 2850 2847 2843 2839 2836 2832 2829 2824 2820 2814 2810 2806 2801 2795 2790 2785 2780 2775 2770 2764
2852 2848 2845 2846 2844 2839 2836 2842 2847 2844 2841 2845 2844 2840 2840 2841 2840 2841 2841 2842 2844 2845 2845 2847 2846 2845 2845 2844 2844 2845 2844 2843 2842 2841 2840 2840 2838 2838 2838 2837 2836 2836 2835 2835 2836 2836 2837 2838 2839 2841 2843 2845 2847 2848 2849 2850 2851 2852 2853 2853 2853 2853 2853 2852 2850 2848 2846 2842 2839 2835 2832 2829 2826 2822 2818 2812 2806 2802 2797 2793 2789 2784 2779 2774 2768 2762
2842 2837 2839 2841 2834 2826 2827 2833 2836 2833 2829 2833 2835 2833 2832 2835 2835 2835 2835 2835 2837 2838 2838 2839 2840 2839 2838 2838 2837 2837 2837 2836 2836 2835 2833 2832 2832 2832 2831 2830 2830 2830 2829 2830 2830 2831 2832 2833 2834 2837 2839 2841 2842 2844 2844 2846 2847 2847 2848 2849 2849 2849 2848 2847 2846 2844 2841 2838 2835 2832 2829 2827 2823 2819 2816 2811 2805 2799 2794 2790 2786 2782 2779 2774 2768 2761
2826 2825 2830 2829 2819 2813 2816 2823 2826 2822 2818 2822 2828 2827 2826 2829 2829 2827 2827 2828 2829 2831 2832 2832 2833 2832 2831 2830 2830 2830 2829 2830 2830 2828 2827 2826 2826 2825 2824 2824 2824 2824 2824 2824 2824 2825 2827 2828 2830 2833 2835 2837 2838 2840 2841 2842 2843 2844 2844 2845 2845 2845 2844 2843 2841 2840 2837 2834 2831 2829 2827 2824 2820 2817 2813 2808 2804 2799 2794 2789 2785 2781 2777 2773 2768 2762